FW7746 Weather Reports


time (UTC)temp
F
wind
direction
speed
knots
gust
knots
rain 1hr
in
rain 24hr
in
rain mn
in
humidity
%
barometer
mb
20260904022604 55 173 0.0 0.0 0.00 0.01 0.00 53 1009.0
20260904022103 55 172 0.0 0.0 0.00 0.01 0.00 52 1009.0
20260904021603 55 173 0.0 0.0 0.00 0.01 0.00 52 1009.0
20260904021104 55 172 0.0 0.0 0.00 0.01 0.00 51 1009.0
20260904020603 55 172 0.0 0.0 0.00 0.01 0.00 51 1009.0
20260904015603 56 172 0.0 0.0 0.00 0.01 0.00 51 1009.1
20260904015103 56 172 0.0 0.0 0.00 0.01 0.00 50 1009.1
20260904014104 56 171 0.0 1.7 0.00 0.01 0.00 49 1009.1
20260904013604 56 180 0.0 0.0 0.00 0.01 0.00 50 1009.0
20260904013103 57 181 0.0 0.0 0.00 0.02 0.00 50 1009.0
20260904012603 57 181 0.0 0.0 0.00 0.02 0.00 49 1009.0
20260904012103 57 180 0.0 1.7 0.00 0.03 0.00 48 1009.0
20260904011603 57 207 0.0 0.0 0.00 0.04 0.00 49 1008.9
20260904011104 57 207 0.0 0.0 0.00 0.06 0.00 49 1008.8
20260904010604 57 207 0.0 0.9 0.00 0.07 0.00 48 1008.7
20260904010104 57 209 0.0 2.6 0.00 0.09 0.00 48 1008.8
20260904005603 57 195 0.0 0.9 0.00 0.09 0.00 47 1008.6
20260904005104 57 190 0.0 0.0 0.00 0.10 0.00 47 1008.8
20260904004603 57 182 0.0 0.9 0.00 0.11 0.00 47 1008.8
20260904003604 57 189 0.0 0.0 0.00 0.11 0.00 46 1008.9
20260904003103 57 215 0.0 2.6 0.00 0.11 0.00 47 1008.9
20260904002604 58 188 0.0 0.9 0.00 0.11 0.00 46 1008.9
20260904001603 57 212 0.0 0.0 0.00 0.11 0.00 46 1008.8
20260904001104 58 211 0.9 4.3 0.00 0.11 0.00 43 1008.9
20260904000603 59 218 0.9 6.1 0.00 0.11 0.00 43 1008.8
20260904000104 59 155 0.0 0.9 0.00 0.11 0.00 44 1008.8
20260903235604 59 163 0.0 1.7 0.00 0.11 0.00 44 1008.8
20260903235104 59 113 0.0 0.0 0.00 0.11 0.00 45 1008.8
20260903234103 59 151 0.0 1.7 0.00 0.11 0.00 45 1008.8
20260903233603 59 52 0.9 5.2 0.00 0.11 0.00 47 1008.9
20260903233103 58 222 0.9 4.3 0.00 0.11 0.00 48 1008.9
20260903232603 58 121 0.0 1.7 0.00 0.11 0.00 47 1009.0
20260903231103 58 147 0.0 1.7 0.00 0.11 0.00 47 1009.1
20260903230604 59 144 0.0 0.9 0.00 0.11 0.00 46 1009.1
20260903230103 60 134 0.0 1.7 0.00 0.11 0.00 45 1009.2
20260903225603 60 91 0.9 5.2 0.00 0.11 0.00 47 1009.1
20260903224104 58 232 0.0 1.7 0.00 0.11 0.00 49 1009.4
20260903223603 58 197 0.9 4.3 0.00 0.11 0.00 50 1009.5
20260903223104 57 200 0.0 1.7 0.00 0.11 0.00 52 1009.6
20260903222603 57 171 0.0 0.0 0.00 0.11 0.00 53 1009.6
20260903222104 57 198 0.0 0.9 0.00 0.11 0.00 53 1009.6
20260903221603 56 217 0.0 1.7 0.00 0.11 0.00 54 1009.7
20260903221104 56 196 0.0 0.0 0.00 0.11 0.00 53 1009.8
20260903220604 55 225 0.0 2.6 0.00 0.11 0.00 55 1009.8
20260903215603 56 203 0.0 1.7 0.00 0.11 0.00 54 1009.9
20260903215104 56 158 0.0 0.9 0.00 0.11 0.00 54 1010.0
20260903214104 56 209 0.0 0.0 0.00 0.11 0.00 53 1010.2
20260903213103 56 185 0.0 1.7 0.00 0.11 0.00 54 1010.4
20260903212603 56 153 0.0 0.9 0.00 0.11 0.00 54 1010.4
20260903212104 56 148 0.0 1.7 0.00 0.11 0.00 54 1010.4
20260903211604 56 187 0.0 0.9 0.00 0.11 0.00 54 1010.4
20260903211103 56 179 0.0 2.6 0.00 0.11 0.00 54 1010.4
20260903210604 56 190 0.0 1.7 0.00 0.11 0.00 55 1010.3
20260903210104 56 172 0.0 0.9 0.00 0.11 0.00 54 1010.4
20260903205603 56 222 0.9 2.6 0.00 0.11 0.00 53 1010.3
20260903205103 56 130 0.9 4.3 0.00 0.11 0.00 54 1010.3
20260903204605 56 209 0.0 0.0 0.00 0.12 0.00 55 1010.3
20260903204103 55 211 0.0 2.6 0.00 0.12 0.00 56 1010.3
20260903203104 55 237 0.0 6.1 0.00 0.12 0.00 56 1010.3
20260903202604 55 204 0.0 2.6 0.00 0.12 0.00 55 1010.4
20260903202103 55 206 0.0 6.1 0.00 0.12 0.00 56 1010.4
20260903201604 55 233 0.9 4.3 0.00 0.12 0.00 56 1010.5
20260903201104 55 218 0.0 1.7 0.00 0.12 0.00 60 1010.6
20260903200604 55 215 0.0 2.6 0.00 0.12 0.00 57 1010.5
20260903200104 55 217 0.0 2.6 0.00 0.13 0.00 59 1010.7
20260903195603 55 235 0.9 2.6 0.00 0.13 0.00 59 1010.6
20260903194603 55 151 0.0 2.6 0.00 0.14 0.00 60 1010.6
20260903194104 55 335 0.0 1.7 0.00 0.14 0.00 61 1010.6
20260903193604 54 240 0.0 1.7 0.00 0.14 0.00 62 1010.6
20260903192604 54 189 0.9 7.0 0.00 0.14 0.00 62 1010.8
20260903192104 54 254 0.0 0.9 0.00 0.15 0.00 63 1010.8
20260903191603 54 59 0.0 1.7 0.00 0.15 0.00 63 1010.9
20260903190603 54 158 0.0 2.6 0.00 0.16 0.00 62 1010.9
20260903190104 53 139 0.0 2.6 0.00 0.17 0.00 64 1011.0
20260903185603 54 138 0.9 2.6 0.00 0.17 0.00 66 1011.0
20260903185104 53 176 0.0 0.0 0.00 0.17 0.00 65 1011.0
20260903184603 53 174 0.0 0.0 0.00 0.18 0.00 68 1011.1
20260903184103 53 177 0.0 2.6 0.00 0.18 0.00 67 1011.1
20260903183103 52 200 0.0 2.6 0.00 0.18 0.00 68 1011.2
20260903182604 52 124 0.0 1.7 0.00 0.18 0.00 70 1011.1
20260903182104 52 160 0.0 0.0 0.00 0.18 0.00 71 1011.2
20260903181103 51 148 0.0 0.9 0.00 0.18 0.00 71 1011.1
20260903180604 51 244 0.0 2.6 0.00 0.18 0.00 73 1011.1
20260903180104 51 70 0.0 0.9 0.00 0.18 0.00 74 1011.1
20260903175604 51 216 0.0 1.7 0.00 0.18 0.00 74 1011.1
20260903175103 50 217 0.0 0.9 0.00 0.18 0.00 74 1011.0
20260903174604 51 194 0.0 0.0 0.00 0.18 0.00 76 1011.1
20260903174104 50 194 0.0 1.7 0.00 0.18 0.00 76 1011.0
20260903173604 50 231 0.0 1.7 0.00 0.18 0.00 77 1011.0
20260903172604 50 159 0.0 0.9 0.00 0.18 0.00 77 1011.1
20260903171104 49 183 0.0 0.0 0.00 0.18 0.00 80 1011.0
20260903165604 48 165 0.0 0.0 0.00 0.18 0.00 81 1011.0
20260903165104 48 152 0.0 0.9 0.00 0.18 0.00 80 1011.1
20260903164603 48 153 0.0 0.0 0.00 0.18 0.00 81 1011.2
20260903163603 48 160 0.0 0.0 0.00 0.18 0.00 82 1011.2
20260903163104 48 160 0.0 0.0 0.00 0.18 0.00 81 1011.2
20260903162104 47 160 0.0 0.0 0.00 0.18 0.00 81 1011.0
20260903161605 47 160 0.0 0.9 0.00 0.18 0.00 81 1011.0
20260903161104 47 150 0.0 0.0 0.00 0.18 0.00 81 1011.1
20260903160604 47 150 0.0 0.0 0.00 0.18 0.00 82 1011.3
20260903160104 47 150 0.0 1.7 0.00 0.18 0.00 82 1011.4
20260903155103 47 189 0.0 0.0 0.00 0.18 0.00 82 1011.4
20260903154603 47 189 0.0 0.0 0.00 0.18 0.00 83 1011.4
20260903154104 47 189 0.0 0.0 0.00 0.18 0.00 82 1011.4
20260903153603 47 189 0.0 0.0 0.00 0.18 0.00 83 1011.4
20260903153104 46 189 0.0 0.0 0.00 0.18 0.00 83 1011.4
20260903152604 46 189 0.0 0.0 0.00 0.18 0.00 83 1011.4
20260903151604 46 189 0.0 0.0 0.00 0.18 0.00 84 1011.4
20260903151103 46 189 0.0 0.0 0.00 0.18 0.00 84 1011.4
20260903150603 45 189 0.0 0.0 0.00 0.18 0.00 84 1011.4
20260903150104 45 189 0.0 0.0 0.00 0.18 0.00 84 1011.2
20260903145604 45 189 0.0 0.9 0.00 0.18 0.00 85 1011.3
20260903145103 45 189 0.0 0.0 0.00 0.18 0.00 85 1011.1
20260903144603 45 189 0.0 0.0 0.00 0.18 0.00 85 1011.1
20260903144103 45 189 0.0 0.0 0.00 0.18 0.00 85 1011.2
20260903143603 44 189 0.0 0.0 0.00 0.18 0.00 85 1011.1
20260903142103 44 189 0.0 0.0 0.00 0.18 0.00 85 1011.2
20260903141604 44 189 0.0 0.0 0.00 0.18 0.00 85 1011.1
20260903141103 44 189 0.0 0.0 0.00 0.18 0.00 85 1011.1
20260903140604 44 189 0.0 0.0 0.00 0.18 0.00 85 1011.2
20260903140104 44 189 0.0 0.0 0.00 0.18 0.00 85 1011.2
20260903135604 44 189 0.0 0.0 0.00 0.18 0.00 85 1011.3
20260903135103 44 189 0.0 0.0 0.00 0.18 0.00 84 1011.3
20260903134604 44 189 0.0 0.0 0.00 0.18 0.00 84 1011.3
20260903134104 44 189 0.0 0.0 0.00 0.18 0.00 83 1011.3
20260903133603 45 189 0.0 0.0 0.00 0.18 0.00 83 1011.3
20260903132104 44 182 0.0 0.0 0.00 0.18 0.00 84 1011.1
20260903131604 44 182 0.0 0.0 0.00 0.18 0.00 85 1011.1
20260903131104 44 182 0.0 0.0 0.00 0.18 0.00 85 1011.0
20260903130604 44 182 0.0 0.0 0.00 0.18 0.00 86 1011.0
20260903125104 43 182 0.0 0.0 0.00 0.18 0.00 88 1010.9
20260903124103 43 182 0.0 0.0 0.00 0.18 0.00 89 1010.8
20260903123604 43 182 0.0 0.0 0.00 0.18 0.00 89 1010.7
20260903123104 43 182 0.0 0.0 0.00 0.18 0.00 89 1010.7
20260903122603 43 182 0.0 0.0 0.00 0.18 0.00 90 1010.7
20260903122103 43 182 0.0 0.0 0.00 0.18 0.00 91 1010.8
20260903121104 42 182 0.0 0.0 0.00 0.18 0.00 91 1010.7
20260903120604 42 182 0.0 0.0 0.00 0.18 0.00 91 1010.7
20260903120104 42 182 0.0 0.0 0.00 0.18 0.00 91 1010.8
20260903115606 42 182 0.0 0.0 0.00 0.18 0.00 90 1010.7
20260903114604 43 182 0.0 0.0 0.00 0.18 0.00 89 1010.7
20260903114104 43 182 0.0 0.0 0.00 0.18 0.00 88 1010.5
20260903113104 44 182 0.0 0.0 0.00 0.18 0.00 87 1010.7
20260903112604 44 182 0.0 0.0 0.00 0.18 0.00 87 1010.6
20260903112104 44 182 0.0 0.0 0.00 0.18 0.00 87 1010.5
20260903111604 44 182 0.0 0.0 0.00 0.18 0.00 88 1010.5
20260903111104 44 182 0.0 0.0 0.00 0.18 0.00 88 1010.5
20260903110604 45 182 0.0 0.0 0.00 0.18 0.00 88 1010.5
20260903110104 45 182 0.0 0.0 0.00 0.18 0.00 87 1010.5
20260903105604 45 182 0.0 0.0 0.00 0.18 0.00 87 1010.5
20260903105104 45 182 0.0 0.0 0.00 0.18 0.00 86 1010.6
20260903104104 45 182 0.0 0.0 0.00 0.18 0.00 85 1010.6
20260903103604 45 182 0.0 0.0 0.00 0.18 0.00 84 1010.6
20260903103104 45 182 0.0 0.0 0.00 0.18 0.00 85 1010.6
20260903102603 45 182 0.0 0.0 0.00 0.18 0.00 84 1010.6
20260903102104 45 182 0.0 0.0 0.00 0.18 0.00 85 1010.7
20260903101604 45 182 0.0 0.0 0.00 0.18 0.00 85 1010.7
20260903101104 45 182 0.0 0.0 0.00 0.18 0.00 84 1010.7
20260903100604 45 182 0.0 0.0 0.00 0.18 0.00 85 1010.6
20260903095603 46 182 0.0 0.9 0.00 0.18 0.00 85 1010.3
20260903095104 46 212 0.0 0.0 0.00 0.18 0.00 85 1010.3
20260903094103 46 192 0.0 0.9 0.00 0.18 0.00 85 1010.2
20260903093604 46 205 0.0 0.9 0.00 0.18 0.00 85 1010.4
20260903093104 46 212 0.0 0.0 0.00 0.18 0.00 84 1010.3
20260903092603 46 218 0.0 0.9 0.00 0.18 0.00 84 1010.2
20260903091604 46 208 0.0 2.6 0.00 0.18 0.00 85 1010.0
20260903091105 46 213 0.0 1.7 0.00 0.18 0.00 85 1010.0
20260903090604 47 174 0.0 2.6 0.00 0.18 0.00 84 1009.9
20260903085603 47 168 0.0 4.3 0.00 0.18 0.00 85 1010.1
20260903085103 47 171 0.9 2.6 0.00 0.18 0.00 84 1010.0
20260903084604 47 196 0.9 2.6 0.00 0.18 0.00 85 1010.0
20260903084104 47 145 0.0 2.6 0.00 0.18 0.00 85 1010.2
20260903083604 47 160 0.0 1.7 0.00 0.18 0.00 85 1010.1
20260903083104 47 235 0.0 2.6 0.00 0.18 0.00 84 1010.2
20260903082103 47 183 0.0 0.9 0.00 0.18 0.00 84 1010.0
20260903081604 47 182 0.0 0.9 0.00 0.18 0.00 83 1010.0
20260903081104 48 182 0.0 2.6 0.00 0.18 0.00 82 1009.8
20260903080604 48 128 0.9 2.6 0.00 0.18 0.00 82 1009.7
20260903080104 48 200 0.9 4.3 0.00 0.18 0.00 82 1009.7
20260903075604 48 187 0.9 4.3 0.00 0.18 0.00 82 1009.8
20260903075103 47 175 0.0 2.6 0.00 0.18 0.00 83 1009.6
20260903074104 48 182 0.0 2.6 0.00 0.18 0.00 82 1009.5
20260903073604 47 253 0.9 2.6 0.00 0.18 0.00 83 1009.5
20260903073103 47 109 0.0 2.6 0.00 0.18 0.00 85 1009.6
20260903072603 47 229 0.0 7.0 0.00 0.18 0.00 86 1009.6
20260903072104 47 210 0.9 2.6 0.00 0.18 0.00 86 1009.6
20260903071604 47 155 0.0 0.0 0.00 0.18 0.00 88 1009.6
20260903071104 47 178 0.0 0.0 0.00 0.18 0.00 88 1009.5
20260903070604 47 178 0.0 0.0 0.00 0.18 0.00 88 1009.5
20260903070104 47 178 0.0 0.0 0.00 0.18 0.00 88 1009.5
20260903065603 48 178 0.0 0.0 0.00 0.18 0.18 88 1009.4
20260903065104 48 178 0.0 0.0 0.00 0.18 0.18 87 1009.5
20260903064603 48 178 0.0 0.0 0.00 0.18 0.18 87 1009.4
20260903064104 48 178 0.0 0.0 0.00 0.18 0.18 87 1009.5
20260903063604 48 178 0.0 0.0 0.00 0.18 0.18 87 1009.4
20260903063103 49 178 0.0 0.0 0.00 0.18 0.18 89 1009.2
20260903062604 49 178 0.0 0.0 0.00 0.18 0.18 90 1009.1
20260903062104 49 178 0.0 0.0 0.00 0.18 0.18 90 1009.0
20260903061605 49 178 0.0 0.0 0.00 0.18 0.18 91 1009.2
20260903060104 49 178 0.0 0.0 0.00 0.18 0.18 90 1009.4
20260903055104 49 166 0.0 2.6 0.00 0.18 0.18 89 1009.3
20260903054604 49 182 0.0 0.0 0.00 0.18 0.18 89 1009.3
20260903054104 49 182 0.0 0.9 0.00 0.18 0.18 89 1009.2
20260903053104 49 236 0.9 2.6 0.00 0.18 0.18 88 1009.3
20260903052603 49 221 0.0 2.6 0.00 0.18 0.18 88 1009.2
20260903052103 49 156 0.0 1.7 0.00 0.18 0.18 88 1009.2
20260903051104 50 196 0.0 1.7 0.00 0.18 0.18 87 1009.1
20260903050604 50 200 0.0 0.9 0.00 0.18 0.18 87 1009.0
20260903050104 50 199 0.0 1.7 0.00 0.18 0.18 86 1008.9
20260903045604 50 173 0.0 1.7 0.00 0.18 0.18 85 1008.9
20260903045104 50 185 0.0 0.9 0.00 0.18 0.18 85 1008.9
20260903044604 50 169 0.0 0.9 0.00 0.18 0.18 85 1008.7
20260903044104 50 144 0.0 0.0 0.00 0.18 0.18 85 1008.7
20260903043604 50 143 0.0 0.9 0.00 0.18 0.18 85 1008.8
20260903041604 50 129 0.0 0.0 0.00 0.18 0.18 86 1008.3
20260903041104 50 129 0.0 0.0 0.01 0.18 0.18 87 1008.4
20260903040604 50 128 0.0 0.0 0.01 0.18 0.18 88 1008.3
20260903035604 49 130 0.0 0.0 0.01 0.18 0.18 89 1008.3
20260903035104 49 128 0.0 0.0 0.01 0.18 0.18 89 1008.2
20260903034105 49 127 0.0 0.0 0.01 0.18 0.18 89 1008.2
20260903033604 49 125 0.0 0.9 0.01 0.18 0.18 89 1008.1
20260903033104 49 130 0.0 0.9 0.01 0.18 0.18 89 1008.1
20260903032103 49 124 0.0 1.7 0.01 0.18 0.18 88 1008.1
20260903031606 49 158 0.0 0.0 0.01 0.18 0.18 88 1008.0
20260903031103 49 158 0.0 0.0 0.00 0.17 0.17 86 1008.1
20260903030604 49 175 0.0 0.0 0.00 0.17 0.17 86 1008.1
20260903030104 49 175 0.0 0.9 0.00 0.17 0.17 86 1008.0
20260903025604 49 201 0.0 0.9 0.00 0.17 0.17 86 1008.1
20260903024104 50 159 0.0 0.0 0.00 0.17 0.17 87 1008.0
20260903023603 50 157 0.0 0.9 0.00 0.17 0.17 87 1008.1
20260903023104 50 157 0.0 1.7 0.01 0.17 0.17 87 1007.9